Skip Page Navigation
NASA JPL Caltech
NASA Logo - Jet Propulsion Laboratory + View the NASA Portal
+ Center for Near-Earth Object Studies
JPL Home Earth Solar System Stars & Galaxies Technology
JPL Solar System Dynamics
BODIES ORBITS EPHEMERIDES TOOLS PHYSICAL DATA DISCOVERY FAQ SITE MAP
JPL Small-Body Database Browser
Search: [ help ]  
34612 (2000 UN13)
Classification: Main-belt Asteroid          SPK-ID: 2034612
Ephemeris | Orbit Diagram | Orbital Elements | Mission Design | Physical Parameters | Discovery Circumstances | Close-Approach Data ]

[ show orbit diagram ]
Orbital Elements at Epoch 2459000.5 (2020-May-31.0) TDB
Reference: JPL 20 (heliocentric ecliptic J2000)
 Element Value Uncertainty (1-sigma)   Units 
e .1460576283927287 4.6298e-08  
a 3.186339815623704 2.253e-08 au
q 2.720950578900382 1.4592e-07 au
i 4.812608261577919 4.0217e-06 deg
node 266.5887058410851 5.9926e-05 deg
peri 70.60713406265599 6.1587e-05 deg
M 198.8641692561538 1.7729e-05 deg
tp 2459930.378452459994
(2022-Dec-16.87845246)
0.00010898 TDB
period 2077.478617513394
5.69
2.2034e-05
6.033e-08
d
yr
n .1732869820970271 1.8379e-09 deg/d
Q 3.651729052347026 2.582e-08 au
  Orbit Determination Parameters
   # obs. used (total)      1153  
   data-arc span      8041 days (22.02 yr)  
   first obs. used      1998-04-21  
   last obs. used      2020-04-26  
   planetary ephem.      DE431  
   SB-pert. ephem.      SB431-N16  
   condition code      0  
   norm. resid. RMS      .50917  
   source      ORB  
   producer      Otto Matic  
   solution date      2020-May-20 07:50:04  

Additional Information
 Earth MOID = 1.71647 au 
 Jupiter MOID = 1.75279 au 
 T_jup = 3.176 
[ show covariance matrix ]

Ephemeris | Orbit Diagram | Orbital Elements | Mission Design | Physical Parameters | Discovery Circumstances | Close-Approach Data ]

Physical Parameter Table
Parameter Symbol Value Units Sigma Reference Notes
absolute magnitude H 13.9   n/a MPO259575  

34612 (2000 UN13)          Discovered 2000-Oct-23 by Korlevic, K. at Visnjan
Reference: 20020128/Numbers.arcLast Updated: 2004-04-19

[ hide close-approach data ]
Close-Approach Data   ...sorted by Date/Time (TDB)
Date/Time (TDB) Time Uncertainty
(days_HH:MM)
Body Nominal Distance (au) Minimum Distance (au) Maximum Distance (au) V-relative (km/s) V-infinity (km/s) JD (TDB) Time Uncertainty (minutes) Semi-major axis (km) Semi-minor axis (km) range-LOV angle (deg) N-sigma BP Orbit Ref. Reference Modified
1968-Nov-17 14:25 00:02 Jupiter 1.94738903800258 1.94738811280027 1.94738996320533 2.42446493421432 2.23788391360296 2440178.100474734 1.9792945734458 99.7651118876632 19.1248785763921 -81.2951225505412 2374804.50502501 T 20 CATAB v2.0f-lin.ifort 2020-May-20 07:50:18 2020-May-20 07:50
1979-Nov-15 20:45 00:01 Jupiter 1.81802062353081 1.81801996002019 1.81802128704174 2.24141845648015 2.02290615658734 2444193.364726722 1.43703765781908 111.914484583239 21.4809674789536 -80.0765224447362 2452215.72562931 T 20 CATAB v2.0f-lin.ifort 2020-May-20 07:50:18 2020-May-20 07:50
1990-Nov-18 01:12 < 00:01 Jupiter 1.74887016087465 1.74886974197959 1.74887057976961 2.47387186255699 2.26966756975146 2448213.549992730 0.919096218933956 77.5965847105813 19.0720999611368 -85.0135254353512 2900055.06343016 T 20 CATAB v2.0f-lin.ifort 2020-May-20 07:50:18 2020-May-20 07:50
2001-Nov-16 23:47 < 00:01 Jupiter 1.78069870989341 1.78069833996511 1.78069907982171 2.94786059230933 2.78182400803055 2452230.490866821 0.487708584934636 58.2786996377068 12.9966026700493 -86.9215249365309 3121852.19447106 T 20 CATAB v2.0f-lin.ifort 2020-May-20 07:50:18 2020-May-20 07:50
2012-Nov-02 13:26 < 00:01 Jupiter 1.90643427866192 1.90643387384883 1.90643468347501 3.61915071812951 3.49423217040676 2456234.059427942 0.207479707538527 45.8706704746602 15.6155102950415 -81.4747656278478 3733829.61836883 T 20 CATAB v2.0f-lin.ifort 2020-May-20 07:50:18 2020-May-20 07:50
2111-Jul-07 17:28 00:03 Jupiter 1.95413950910875 1.9541387240199 1.95414029419882 2.43197266108998 2.24668428160377 2492274.227471101 3.04075762166281 130.626787449021 14.9854052045129 -86.9049654500866 2524049.70705548 T 20 CATAB v2.0f-lin.ifort 2020-May-20 07:50:18 2020-May-20 07:50
2122-Jul-04 07:07 00:04 Jupiter 1.84380720783055 1.84380644867407 1.84380796699017 2.17535114644235 1.95278699123305 2496288.796518295 3.50372362381735 197.193240357972 19.2350497042366 -81.0094299978584 2510645.6308937 T 20 CATAB v2.0f-lin.ifort 2020-May-20 07:50:18 2020-May-20 07:50
2133-Jul-06 14:47 00:04 Jupiter 1.78427112088426 1.78427064081933 1.78427160094949 2.39884206316647 2.19203346718073 2500309.116318871 3.98338607801432 124.891477723487 25.4412975151296 -74.1469981845898 2665268.3102005 T 20 CATAB v2.0f-lin.ifort 2020-May-20 07:50:18 2020-May-20 07:50
2144-Jul-05 22:40 00:05 Jupiter 1.8047394393459 1.80473884679364 1.80474003189949 2.91743432726838 2.75186454057394 2504326.444436914 4.54551064725393 124.960537801845 13.4397374757063 -88.8455162806918 2068448.87871708 T 20 CATAB v2.0f-lin.ifort 2020-May-20 07:50:18 2020-May-20 07:50
2155-Jun-25 01:25 00:05 Jupiter 1.91035983369157 1.91035851041906 1.91036115697244 3.62745077590672 3.50308886874301 2508332.558840331 5.1564942538526 223.284687607936 15.4043940374737 -77.3193896058207 3158303.26183631 T 20 CATAB v2.0f-lin.ifort 2020-May-20 07:50:18 2020-May-20 07:50

Alternate Designations
 2000 UN13 = 1998 HV72 
Ephemeris | Orbit Diagram | Orbital Elements | Mission Design | Physical Parameters | Discovery Circumstances | Close-Approach Data ]
ABOUT SSD CREDITS/AWARDS PRIVACY/COPYRIGHT GLOSSARY LINKS
FirstGov 2020-Aug-08 18:52 UT
(server date/time)  
NASA Home Page
Site Manager:   Ryan S. Park
Webmaster  Alan B. Chamberlin